[[{"header":{"parameterUnit":"m.s-1","parameterCategory":2,"la1":30.2991,"la2":30.254,"lo1":-89.0895,"lo2":-89.0444,"dy":0.0017,"dx":0.0017,"nx":28,"ny":28,"refTime":"2024-04-25T21:00:00:Z","depth":"0","parameterNumber":2,"parameterNumberName":"U-component_of_CURRENTS"},"data":[0,0,0,0,0,0,0,0,0,0,0,0,0,0,0,0,0,0,0,0,0,0,0,0,0,0,0,0,0,0,0,0,0,0,0,0,0,0,0,0,0,0,0,0,0,0,0,0,0,0,0,0,0,0,0,0,0,0,0.3925,0.3926,0,0.3992,0.3993,0.3994,0.399,0.3989,0.3988,0.3988,0.4026,0.4028,0.403,0,0,0,0,0,0,0,0,0,0,0,0,0,0.3874,0.3875,0.3925,0.3926,0.3927,0.3992,0.3993,0.3994,0.399,0.3989,0.3988,0.3987,0.4025,0.4028,0.403,0,0,0,0,0,0,0,0,0,0,0,0,0,0.3914,0.3875,0.3925,0.3933,0.3935,0.3992,0.3993,0.3994,0.3991,0.3989,0.3988,0.3987,0.4025,0.4027,0.403,0.4075,0,0,0.4039,0.404,0,0,0,0,0,0,0,0,0.3911,0.3915,0.3931,0.3933,0.3935,0.3982,0.3989,0.402,0.3991,0.3969,0.3988,0.3986,0.401,0.4014,0.4029,0.4077,0.4078,0.4039,0.4041,0.4042,0.4043,0,0,0,0,0,0,0,0.3908,0.3913,0.3951,0.3932,0.3935,0.3962,0.3965,0.3996,0.3995,0.3971,0.3971,0.398,0.401,0.4027,0.403,0.4079,0.4039,0.4041,0.4043,0.4044,0.4176,0.4178,0,0,0,0,0,0,0.3899,0.391,0.3949,0.3953,0.392,0.3963,0.3967,0.3968,0.3996,0.3999,0.3981,0.3979,0.4022,0.4027,0.4031,0.4098,0.4042,0.4044,0.4046,0.4174,0.4176,0.4178,0,0,0,0,0,0,0.3897,0.3901,0.3946,0.3934,0.3942,0.3965,0.3967,0.397,0.3989,0.4004,0.4006,0.3997,0.4022,0.4027,0.4068,0.4099,0.4046,0.4048,0.4172,0.4175,0.4177,0.4224,0,0,0,0,0,0,0.3895,0.39,0.3903,0.3933,0.3942,0.3992,0.3968,0.3972,0.3997,0.3996,0.4019,0.402,0.4021,0.4064,0.4071,0.4102,0.405,0.417,0.4173,0.4177,0.422,0.4228,0.4235,0,0,0,0,0,0.3893,0.391,0.3902,0.3907,0.3942,0.3993,0.4001,0.4013,0.3999,0.4022,0.4032,0.402,0.409,0.4068,0.4076,0.4108,0.4168,0.4172,0.4176,0.4217,0.4227,0.4235,0,0,0,0,0,0,0.389,0.3912,0.3904,0.3925,0.3958,0.3993,0.4017,0.4022,0.405,0.4045,0.4047,0.4052,0.4102,0.4102,0.4077,0.4157,0.4127,0.4132,0.4155,0.4164,0.4171,0.4255,0.4053,0,0,0,0,0,0.3889,0.3906,0.3932,0.3951,0.3967,0.3991,0.4013,0.4023,0.405,0.4061,0.4072,0.4091,0.4128,0.414,0.4171,0.4215,0.4293,0.424,0.4248,0.4254,0.4328,0.4471,0.4499,0.4192,0.4192,0.4192,0,0,0.3894,0.3908,0.3918,0.3952,0.3975,0.4016,0.4001,0.4043,0.4084,0.4062,0.4113,0.4123,0.4148,0.4199,0.422,0.4198,0.4374,0.4259,0.4264,0.4337,0.4478,0.4509,0.4536,0.4195,0.4194,0.4194,0,0,0.3921,0.3925,0.3949,0.398,0.4018,0.4043,0.4056,0.4092,0.4115,0.4156,0.4164,0.4214,0.4226,0.4285,0.4306,0.4382,0.4414,0.4354,0.4454,0.4589,0.4617,0.4643,0.475,0.4785,0.4349,0.4349,0.4349,0,0.3923,0.3954,0.3968,0.4004,0.4039,0.4056,0.4102,0.4139,0.4184,0.4223,0.4174,0.4281,0.4289,0.4412,0.4431,0.4406,0.4473,0.4409,0.4603,0.463,0.4656,0.476,0.4798,0.4352,0.4352,0.4351,0.4351,0,0.3968,0.3997,0.4021,0.4067,0.4109,0.4156,0.4205,0.425,0.4257,0.429,0.4391,0.4419,0.4497,0.4484,0.4479,0.4659,0.4643,0.46,0.4585,0.4691,0.4792,0.4831,0.4356,0.4355,0.4354,0.4353,0,0,0.3955,0.4035,0.4041,0.4086,0.4148,0.4198,0.4274,0.4364,0.4447,0.4466,0.4586,0.4644,0.4671,0.4707,0.4715,0.4825,0.5032,0.4791,0.4797,0.4909,0.5327,0.5232,0.5264,0.5012,0.502,0.5026,0.5314,0,0.3983,0.4066,0.4097,0.4193,0.4247,0.4299,0.4383,0.4467,0.4525,0.4643,0.4705,0.4811,0.4751,0.4805,0.4912,0.5022,0.5143,0.4959,0.5204,0.5213,0.5124,0.5311,0.4998,0.5223,0.5352,0.5359,0.5363,0,0.4008,0.4069,0.416,0.4285,0.4314,0.4375,0.4533,0.4612,0.4769,0.4816,0.4933,0.4986,0.5181,0.5094,0.5374,0.5253,0.5326,0.5384,0.5394,0.5339,0.5194,0.5146,0.5289,0.5118,0.5424,0.5419,0.5414,0,0.4008,0.4115,0.4197,0.4234,0.437,0.4436,0.4516,0.4662,0.4774,0.496,0.5065,0.5243,0.5382,0.551,0.5616,0.5524,0.591,0.5783,0.5773,0.5764,0.5574,0.5536,0.5601,0.602,0.6019,0.6018,0.6017,0,0.403,0.4098,0.4208,0.4257,0.4388,0.4466,0.463,0.4725,0.4913,0.5074,0.5175,0.5352,0.5503,0.5701,0.5745,0.5908,0.6021,0.5884,0.5873,0.5572,0.5533,0.5432,0.5344,0.6029,0.6026,0.6024,0.6022,0,0.4022,0.4087,0.4195,0.4336,0.439,0.4485,0.4688,0.4823,0.4978,0.5206,0.5283,0.5525,0.5771,0.5901,0.6146,0.6095,0.6055,0.6247,0.5873,0.5813,0.557,0.5494,0.5496,0.5345,0.6294,0.6294,0.6294,0,0.4037,0.4088,0.4235,0.4322,0.4389,0.4543,0.4668,0.4836,0.4979,0.53,0.5422,0.5726,0.5886,0.62,0.6207,0.6311,0.6106,0.6061,0.5831,0.5606,0.5515,0.5317,0.5175,0.5587,0.5581,0.5576,0.5573,0,0.4086,0.4122,0.4215,0.4364,0.4496,0.4633,0.4807,0.4912,0.5129,0.5294,0.5528,0.5677,0.5967,0.5928,0.6064,0.607,0.5725,0.5965,0.5842,0.5106,0.4792,0.4618,0.5337,0.553,0.5534,0.5537,0.554,0.5541,0.4132,0.419,0.4305,0.4435,0.4562,0.4671,0.4722,0.4888,0.5041,0.5179,0.5442,0.5523,0.5588,0.5722,0.5712,0.5468,0.551,0.5227,0.5203,0.5064,0.4768,0.5402,0.5496,0.55,0.5504,0.5507,0.5509,0,0.4209,0.4266,0.4386,0.4498,0.4568,0.4649,0.478,0.476,0.4809,0.4979,0.5083,0.5089,0.5017,0.5043,0.4901,0.4705,0.4488,0.4563,0.419,0.4125,0.479,0.4601,0.4368,0.4368,0.4368,0.4369,0.4369,0.4369,0.4263,0.4368,0.4393,0.4473,0.4522,0.4497,0.4508,0.4456,0.4495,0.442,0.4381,0.4456,0.4562,0.4474,0.4231,0.4126,0.3818,0.3624,0.3711,0.4122,0.4179,0.4234,0.4037,0.369,0.3689,0.2812,0.2805,0.28]},{"header":{"parameterUnit":"m.s-1","parameterCategory":2,"la1":30.2991,"la2":30.254,"lo1":-89.0895,"lo2":-89.0444,"dy":0.0017,"dx":0.0017,"nx":28,"ny":28,"refTime":"2024-04-25T21:00:00:Z","depth":"0","parameterNumber":3,"parameterNumberName":"V-component_of_CURRENTS"},"data":[0,0,0,0,0,0,0,0,0,0,0,0,0,0,0,0,0,0,0,0,0,0,0,0,0,0,0,0,0,0,0,0,0,0,0,0,0,0,0,0,0,0,0,0,0,0,0,0,0,0,0,0,0,0,0,0,0,0,0.0173,0.0173,0,0.0114,0.0113,0.0112,0.0063,0.0062,0.0062,0.0062,-0.0014,-0.0015,-0.0017,0,0,0,0,0,0,0,0,0,0,0,0,0,0.0208,0.0207,0.0173,0.0173,0.0172,0.0114,0.0113,0.0112,0.0063,0.0062,0.0062,0.0062,-0.0013,-0.0015,-0.0017,0,0,0,0,0,0,0,0,0,0,0,0,0,0.0173,0.0207,0.0173,0.0142,0.0139,0.0115,0.0113,0.0112,0.0063,0.0062,0.0062,0.0061,-0.0012,-0.0015,-0.0017,-0.0023,0,0,-0.0025,-0.0026,0,0,0,0,0,0,0,0,0.0175,0.0172,0.0147,0.0144,0.0141,0.0097,0.0098,0.0067,0.0063,0.0089,0.0062,0.0061,0.0024,0.0018,0.0005,-0.0026,-0.003,-0.0025,-0.0027,-0.0028,-0.0029,0,0,0,0,0,0,0,0.0178,0.0174,0.0148,0.0147,0.0143,0.0119,0.0114,0.0092,0.0058,0.0087,0.0084,0.0081,0.0021,0.0008,0.0003,-0.0031,-0.0025,-0.0028,-0.0029,-0.003,-0.0062,-0.0062,0,0,0,0,0,0,0.0192,0.0176,0.0149,0.0146,0.0159,0.0119,0.0113,0.011,0.0059,0.0051,0.0081,0.0079,0.0012,0.0006,0.0,0.0018,-0.0028,-0.003,-0.0032,-0.0063,-0.0062,-0.0061,0,0,0,0,0,0,0.0193,0.019,0.0152,0.0161,0.0155,0.012,0.0116,0.0109,0.01,0.0055,0.0046,0.0081,0.0012,0.0004,-0.0005,0.0014,-0.0031,-0.0034,-0.0064,-0.0063,-0.0062,0.0036,0,0,0,0,0,0,0.0194,0.0191,0.0194,0.0163,0.0155,0.0153,0.0117,0.0108,0.01,0.0096,0.0052,0.0044,0.0011,-0.0001,-0.0008,0.0009,-0.0036,-0.0065,-0.0063,-0.0062,0.0032,0.004,0.0048,0,0,0,0,0,0.0195,0.021,0.0195,0.0192,0.0161,0.0154,0.0148,0.0119,0.0101,0.0107,0.0078,0.0045,0.0002,-0.0002,-0.001,0.0007,-0.0065,-0.0064,-0.0062,0.0029,0.0039,0.0047,0,0,0,0,0,0,0.0229,0.0206,0.0188,0.0195,0.0181,0.0147,0.0149,0.0128,0.0109,0.0102,0.0058,0.0049,0.0042,0.0013,0.001,-0.0001,-0.0039,-0.0039,0.0033,0.0042,0.005,0.0107,-0.0038,0,0,0,0,0,0.0238,0.0242,0.0215,0.0222,0.0216,0.0183,0.0176,0.0157,0.0135,0.0125,0.0095,0.0063,0.0041,0.0034,0.0004,0.0008,0.0008,0.001,0.0018,0.0025,0.0065,0.0077,0.0091,-0.0056,-0.0056,-0.0057,0,0,0.0254,0.0242,0.0243,0.023,0.0212,0.022,0.0177,0.0174,0.0186,0.0121,0.0127,0.0086,0.0046,0.0044,0.0039,0.0025,0.0065,0.0027,0.0034,0.0071,0.0081,0.0095,0.0109,-0.0055,-0.0056,-0.0056,0,0,0.0293,0.0275,0.0292,0.0286,0.0269,0.0252,0.0257,0.0228,0.022,0.0217,0.0174,0.0162,0.0118,0.0108,0.0093,0.0129,0.01,0.0101,0.0197,0.0207,0.0221,0.0232,0.0251,0.0263,0.0113,0.0113,0.0113,0,0.0313,0.0331,0.0298,0.0314,0.0324,0.0273,0.0304,0.0287,0.0261,0.0279,0.0232,0.0209,0.0157,0.019,0.0191,0.0151,0.0153,0.0166,0.0221,0.0233,0.0243,0.0259,0.0272,0.0118,0.0118,0.0117,0.0117,0,0.0363,0.038,0.0392,0.0398,0.0403,0.042,0.0398,0.0404,0.0381,0.0371,0.039,0.033,0.0334,0.0294,0.0249,0.03,0.0276,0.0225,0.0206,0.0265,0.0276,0.0288,0.0125,0.0123,0.0122,0.0121,0,0,0.041,0.0426,0.0433,0.0467,0.0453,0.0476,0.0496,0.0524,0.0578,0.0526,0.0605,0.0532,0.0515,0.0499,0.0443,0.044,0.0486,0.0371,0.0369,0.0407,0.0525,0.0463,0.0469,0.0442,0.0444,0.0446,0.0504,0,0.0465,0.0531,0.0518,0.0593,0.0631,0.0609,0.065,0.0667,0.0668,0.0726,0.0678,0.0713,0.0588,0.0607,0.0583,0.0525,0.0522,0.0477,0.0449,0.045,0.0401,0.0482,0.044,0.0484,0.0515,0.0517,0.0518,0,0.0527,0.0568,0.0653,0.0727,0.0744,0.0782,0.0872,0.0901,0.0947,0.0955,0.0974,0.094,0.0953,0.0826,0.0777,0.0755,0.0658,0.0589,0.0588,0.0515,0.0411,0.0429,0.0503,0.0258,0.0535,0.0534,0.0533,0,0.0609,0.0672,0.0756,0.0775,0.0838,0.0893,0.0932,0.0985,0.1059,0.1126,0.1203,0.1174,0.1212,0.1089,0.0929,0.0868,0.0868,0.0763,0.0621,0.0615,0.057,0.0556,0.0424,0.0731,0.0731,0.0731,0.0731,0,0.0687,0.0758,0.081,0.0861,0.0988,0.0998,0.1144,0.1173,0.1273,0.1415,0.1346,0.1464,0.1279,0.1243,0.1044,0.0895,0.0961,0.068,0.064,0.0599,0.0587,0.0361,0.0235,0.0733,0.0733,0.0732,0.0732,0,0.0769,0.0796,0.0904,0.0993,0.1032,0.1129,0.1272,0.1389,0.1458,0.165,0.1694,0.1723,0.1689,0.148,0.1315,0.108,0.0772,0.0827,0.0794,0.0748,0.0348,0.0231,0.0103,0.0004,0.0696,0.0695,0.0695,0,0.0822,0.0881,0.1002,0.1087,0.1135,0.1274,0.1387,0.1473,0.1611,0.1825,0.1947,0.1982,0.205,0.1783,0.1385,0.1065,0.0797,0.076,0.0614,0.0361,0.02,0.0101,0.002,0.0596,0.0594,0.0593,0.0592,0,0.092,0.0956,0.1041,0.1205,0.1337,0.1491,0.1658,0.1793,0.1946,0.213,0.2364,0.2446,0.2215,0.1907,0.1431,0.1148,0.0574,0.0722,0.0476,0.0144,0.0016,-0.011,0.0523,0.0581,0.0582,0.0583,0.0583,0.0584,0.0993,0.1064,0.1173,0.1332,0.1492,0.1697,0.1843,0.2051,0.23,0.2587,0.2645,0.2808,0.231,0.1683,0.1294,0.049,0.0521,0.0203,0.0098,0.0033,-0.0116,0.0495,0.0479,0.048,0.048,0.0481,0.0481,0,0.1075,0.1148,0.1299,0.1488,0.1677,0.1745,0.202,0.2193,0.2504,0.2777,0.2978,0.2807,0.219,0.1517,0.0477,-0.0052,-0.0244,-0.035,-0.0511,-0.0552,0.0009,-0.0055,-0.0208,-0.0208,-0.0208,-0.0207,-0.0207,-0.0207,0.1121,0.1251,0.1318,0.1605,0.1757,0.2008,0.217,0.2448,0.2682,0.2992,0.3089,0.3113,0.2538,0.0802,-0.0411,-0.0681,-0.099,-0.1071,-0.1199,-0.086,-0.0817,-0.0777,-0.0869,-0.119,-0.1192,-0.1734,-0.1739,-0.1744]}],[{"header":{"parameterUnit":"m.s-1","parameterCategory":2,"la1":30.2991,"la2":30.254,"lo1":-89.0895,"lo2":-89.0444,"dy":0.0017,"dx":0.0017,"nx":28,"ny":28,"refTime":"2024-04-25T21:00:00:Z","depth":"2","parameterNumber":2,"parameterNumberName":"U-component_of_CURRENTS"},"data":[0,0,0,0,0,0,0,0,0,0,0,0,0,0,0,0,0,0,0,0,0,0,0,0,0,0,0,0,0,0,0,0,0,0,0,0,0,0,0,0,0,0,0,0,0,0,0,0,0,0,0,0,0,0,0,0,0,0,0.3086,0.3086,0,0.3137,0.3137,0.3138,0.3175,0.3175,0.3176,0.3176,0.3221,0.3222,0.3223,0,0,0,0,0,0,0,0,0,0,0,0,0,0.302,0.3021,0.3086,0.3086,0.3087,0.3137,0.3137,0.3138,0.3175,0.3175,0.3176,0.3176,0.3221,0.3222,0.3224,0,0,0,0,0,0,0,0,0,0,0,0,0,0.3058,0.3021,0.3086,0.311,0.3113,0.3136,0.3137,0.3138,0.3175,0.3175,0.3176,0.3176,0.3221,0.3222,0.3224,0.3228,0,0,0.3229,0.3229,0,0,0,0,0,0,0,0,0.3056,0.3061,0.3106,0.3109,0.3111,0.3149,0.3131,0.3168,0.3175,0.3153,0.3176,0.3176,0.3195,0.3199,0.321,0.323,0.3232,0.3229,0.323,0.323,0.3231,0,0,0,0,0,0,0,0.3054,0.3059,0.3107,0.3107,0.311,0.3118,0.3124,0.3138,0.3173,0.3155,0.3157,0.3161,0.3197,0.3209,0.3211,0.3233,0.3229,0.323,0.3231,0.3232,0.3339,0.334,0,0,0,0,0,0,0.3044,0.3057,0.3106,0.3109,0.3082,0.3119,0.3126,0.3138,0.3173,0.3178,0.316,0.3162,0.3206,0.321,0.3213,0.3285,0.323,0.3232,0.3233,0.3337,0.3339,0.3341,0,0,0,0,0,0,0.3043,0.3049,0.3104,0.3082,0.309,0.312,0.3133,0.3138,0.3162,0.3177,0.3183,0.3179,0.3206,0.3211,0.3245,0.3285,0.3232,0.3234,0.3334,0.3337,0.334,0.3388,0,0,0,0,0,0,0.3041,0.3048,0.3058,0.3082,0.309,0.3129,0.3132,0.3139,0.3162,0.3165,0.3195,0.3199,0.3207,0.3243,0.3247,0.3286,0.3235,0.3332,0.3336,0.3339,0.3384,0.3392,0.3399,0,0,0,0,0,0.3039,0.3059,0.3059,0.3065,0.3102,0.313,0.3136,0.3158,0.3163,0.3179,0.3202,0.3198,0.3269,0.3245,0.325,0.329,0.333,0.3335,0.3339,0.338,0.339,0.3399,0,0,0,0,0,0,0.3045,0.3065,0.3065,0.3093,0.311,0.3136,0.3157,0.3164,0.3195,0.3203,0.3213,0.322,0.3274,0.3271,0.3245,0.3334,0.3303,0.3308,0.3333,0.3342,0.335,0.3403,0.3236,0,0,0,0,0,0.3046,0.3062,0.3081,0.3102,0.3115,0.3134,0.3149,0.3163,0.3188,0.3203,0.323,0.326,0.3293,0.3306,0.334,0.3372,0.3426,0.3405,0.3412,0.3419,0.3467,0.3587,0.3611,0.3355,0.3355,0.3355,0,0,0.3047,0.3066,0.3071,0.3103,0.3123,0.3155,0.3146,0.3177,0.3212,0.3202,0.3271,0.3291,0.3311,0.3365,0.3387,0.3364,0.3513,0.3424,0.3429,0.3475,0.3594,0.3619,0.3642,0.3358,0.3357,0.3357,0,0,0.3067,0.3084,0.3103,0.3126,0.3157,0.3175,0.3185,0.3222,0.325,0.3294,0.3315,0.3364,0.3396,0.344,0.3456,0.3523,0.3557,0.3524,0.3597,0.3711,0.3734,0.3755,0.3828,0.3855,0.3518,0.3518,0.3518,0,0.3067,0.3102,0.3113,0.3149,0.3178,0.3187,0.3226,0.3255,0.3303,0.3347,0.3324,0.344,0.3443,0.3535,0.3562,0.3544,0.3607,0.3553,0.3724,0.3745,0.3766,0.3837,0.3866,0.352,0.352,0.352,0.352,0,0.3101,0.3136,0.3157,0.3204,0.3237,0.3272,0.3311,0.3361,0.3387,0.3423,0.3523,0.3542,0.3624,0.3617,0.3607,0.3754,0.3749,0.3725,0.3702,0.3795,0.3862,0.3892,0.3525,0.3524,0.3523,0.3522,0,0,0.3085,0.3161,0.3171,0.3205,0.3272,0.33,0.3381,0.3459,0.3535,0.3575,0.3684,0.3734,0.3771,0.3797,0.3799,0.3879,0.4047,0.3871,0.3876,0.3948,0.4297,0.4139,0.4156,0.4062,0.4068,0.4073,0.4275,0,0.3108,0.3182,0.3218,0.3292,0.3337,0.339,0.3473,0.3549,0.3614,0.3725,0.3769,0.3868,0.3829,0.388,0.3963,0.4046,0.4135,0.3994,0.4196,0.4202,0.4054,0.4189,0.382,0.3958,0.4304,0.4309,0.4313,0,0.3128,0.3184,0.3257,0.336,0.3387,0.3444,0.3589,0.3655,0.3806,0.3868,0.3982,0.4028,0.4174,0.4108,0.4327,0.4248,0.4302,0.4335,0.4344,0.4214,0.4101,0.3927,0.3999,0.4363,0.4359,0.4355,0.4352,0,0.3112,0.3208,0.3269,0.33,0.3419,0.3488,0.3567,0.3716,0.3799,0.3984,0.4082,0.4234,0.4341,0.445,0.4511,0.4463,0.4723,0.4656,0.4562,0.4549,0.4287,0.424,0.4833,0.4833,0.4832,0.4832,0.4831,0,0.3118,0.3168,0.3274,0.3306,0.3418,0.3502,0.3632,0.3747,0.3914,0.4032,0.4169,0.4296,0.4445,0.4578,0.4609,0.4683,0.4817,0.4632,0.4618,0.4284,0.4238,0.4625,0.4599,0.4839,0.4838,0.4836,0.4835,0,0.3085,0.3144,0.3197,0.333,0.3408,0.347,0.366,0.377,0.3935,0.4103,0.4177,0.4414,0.4609,0.4701,0.4883,0.4808,0.4877,0.4857,0.443,0.4362,0.4604,0.4578,0.4818,0.4815,0.4812,0.481,0.4808,0,0.3067,0.3102,0.321,0.3277,0.3346,0.3477,0.3615,0.3776,0.3863,0.4149,0.4223,0.4491,0.4588,0.4785,0.4763,0.4803,0.4891,0.4445,0.4277,0.4655,0.4618,0.4595,0.4573,0.3945,0.3936,0.3929,0.3923,0,0.3039,0.3061,0.3115,0.3256,0.3375,0.3469,0.3636,0.3673,0.3856,0.4013,0.4188,0.4293,0.4509,0.4383,0.4431,0.4394,0.4403,0.4296,0.487,0.3979,0.3841,0.38,0.3806,0.3859,0.3865,0.387,0.3873,0.3876,0.3013,0.3014,0.3098,0.3215,0.3342,0.3392,0.3398,0.3533,0.3607,0.3711,0.393,0.3983,0.4047,0.3949,0.385,0.3811,0.4107,0.3894,0.3914,0.3942,0.3779,0.364,0.3589,0.3593,0.3598,0.3601,0.3604,0,0.2964,0.301,0.3098,0.3161,0.3216,0.3328,0.3386,0.331,0.33,0.3453,0.3529,0.3256,0.3189,0.3308,0.3139,0.3114,0.3061,0.2994,0.2891,0.2959,0.3019,0.2804,0.2359,0.2355,0.2351,0.2347,0,0,0.2933,0.2953,0.2966,0.2992,0.3076,0.3014,0.2966,0.2898,0.2898,0.2824,0.2838,0.3045,0.3184,0.272,0.2662,0.2486,0.2697,0.2392,0.3398,0.3345,0.3399,0.3554,0.3303,0,0,0,0,0]},{"header":{"parameterUnit":"m.s-1","parameterCategory":2,"la1":30.2991,"la2":30.254,"lo1":-89.0895,"lo2":-89.0444,"dy":0.0017,"dx":0.0017,"nx":28,"ny":28,"refTime":"2024-04-25T21:00:00:Z","depth":"2","parameterNumber":3,"parameterNumberName":"V-component_of_CURRENTS"},"data":[0,0,0,0,0,0,0,0,0,0,0,0,0,0,0,0,0,0,0,0,0,0,0,0,0,0,0,0,0,0,0,0,0,0,0,0,0,0,0,0,0,0,0,0,0,0,0,0,0,0,0,0,0,0,0,0,0,0,0.0036,0.0036,0,-0.0009,-0.0009,-0.001,-0.0043,-0.0044,-0.0044,-0.0044,-0.011,-0.0111,-0.0113,0,0,0,0,0,0,0,0,0,0,0,0,0,0.0062,0.0062,0.0036,0.0036,0.0035,-0.0008,-0.0009,-0.001,-0.0043,-0.0044,-0.0044,-0.0044,-0.0109,-0.0111,-0.0113,0,0,0,0,0,0,0,0,0,0,0,0,0,0.0037,0.0062,0.0036,0.0014,0.0011,-0.0008,-0.0009,-0.001,-0.0043,-0.0044,-0.0044,-0.0044,-0.0109,-0.0111,-0.0113,-0.0119,0,0,-0.012,-0.0121,0,0,0,0,0,0,0,0,0.0039,0.0036,0.0017,0.0015,0.0012,-0.002,-0.0024,-0.0047,-0.0043,-0.0023,-0.0044,-0.0045,-0.0081,-0.0086,-0.0094,-0.0122,-0.0125,-0.012,-0.0121,-0.0122,-0.0123,0,0,0,0,0,0,0,0.004,0.0038,0.0018,0.0017,0.0014,-0.0005,-0.0009,-0.0029,-0.005,-0.0025,-0.0027,-0.0031,-0.0083,-0.0091,-0.0095,-0.0126,-0.012,-0.0122,-0.0123,-0.0124,-0.0158,-0.0157,0,0,0,0,0,0,0.0049,0.004,0.0019,0.0017,0.0025,-0.0005,-0.0009,-0.001,-0.005,-0.0056,-0.0031,-0.0033,-0.0087,-0.0093,-0.0098,-0.0091,-0.0122,-0.0125,-0.0126,-0.0158,-0.0158,-0.0157,0,0,0,0,0,0,0.005,0.0048,0.0021,0.0027,0.0023,-0.0005,-0.0005,-0.0011,-0.0016,-0.0054,-0.0061,-0.003,-0.0088,-0.0095,-0.0104,-0.0095,-0.0126,-0.0128,-0.0159,-0.0158,-0.0157,-0.0088,0,0,0,0,0,0,0.0051,0.0048,0.0052,0.0028,0.0023,0.0023,-0.0005,-0.0011,-0.0018,-0.002,-0.0056,-0.0062,-0.0089,-0.0101,-0.0106,-0.0098,-0.0129,-0.0159,-0.0158,-0.0157,-0.0091,-0.0085,-0.008,0,0,0,0,0,0.0052,0.0063,0.0053,0.005,0.0029,0.0024,0.002,-0.0002,-0.0017,-0.001,-0.0034,-0.0061,-0.01,-0.0102,-0.0109,-0.0101,-0.016,-0.0159,-0.0158,-0.0093,-0.0086,-0.008,0,0,0,0,0,0,0.0078,0.006,0.0048,0.0054,0.0044,0.0019,0.002,0.0005,-0.001,-0.0015,-0.0052,-0.0059,-0.0068,-0.0092,-0.0093,-0.0109,-0.0136,-0.0136,-0.0084,-0.0078,-0.0073,-0.0045,-0.0131,0,0,0,0,0,0.0085,0.0089,0.007,0.0076,0.0071,0.0046,0.0041,0.0027,0.001,0.0003,-0.0022,-0.0049,-0.007,-0.0078,-0.0102,-0.0105,-0.0126,-0.0106,-0.0101,-0.0096,-0.0078,-0.0097,-0.0092,-0.0154,-0.0154,-0.0154,0,0,0.0096,0.0088,0.0089,0.0081,0.0069,0.0075,0.0042,0.004,0.005,-0.0002,0.0002,-0.0032,-0.0067,-0.0073,-0.0079,-0.009,-0.0092,-0.0095,-0.009,-0.0075,-0.0096,-0.0089,-0.0084,-0.0153,-0.0153,-0.0153,0,0,0.0126,0.0113,0.0127,0.0124,0.0113,0.0099,0.0103,0.0082,0.0077,0.0074,0.0038,0.0018,-0.0013,-0.0032,-0.0048,-0.0025,-0.0065,-0.004,0.0014,-0.0005,0.0001,0.0005,-0.0022,-0.002,-0.0034,-0.0034,-0.0034,0,0.0139,0.0156,0.0132,0.0147,0.0154,0.0115,0.0139,0.0127,0.0108,0.0115,0.0086,0.0047,0.0009,0.001,0.0013,-0.0012,-0.0031,-0.0007,0.0004,0.0008,0.0011,-0.0018,-0.0017,-0.003,-0.0031,-0.0031,-0.0032,0,0.0179,0.0195,0.0204,0.0212,0.0216,0.0229,0.0213,0.0217,0.0198,0.0184,0.018,0.0127,0.0112,0.0085,0.0054,0.0061,0.0036,0.0011,-0.0009,0.0022,-0.0011,-0.0011,-0.0026,-0.0027,-0.0028,-0.0029,0,0,0.0211,0.023,0.0235,0.0261,0.0255,0.027,0.0286,0.0299,0.0329,0.0283,0.0316,0.0255,0.0225,0.0206,0.0159,0.0134,0.0125,0.0089,0.0086,0.007,0.0081,0.0024,0.0017,0.0103,0.0103,0.0104,0.0046,0,0.0254,0.0309,0.0302,0.0358,0.0387,0.037,0.04,0.0404,0.0396,0.0414,0.0352,0.0358,0.0272,0.0274,0.0231,0.0163,0.0129,0.0143,0.0048,0.0045,-0.0003,0.0017,0.0046,-0.0007,0.0045,0.0045,0.0045,0,0.0301,0.0336,0.0402,0.0456,0.0468,0.0495,0.055,0.0572,0.0574,0.0572,0.055,0.0502,0.0465,0.0386,0.0278,0.0293,0.0196,0.0125,0.0121,0.0048,-0.0012,-0.0029,-0.001,0.0043,0.0044,0.0044,0.0044,0,0.0358,0.0411,0.0475,0.0489,0.0536,0.0574,0.0601,0.0625,0.0674,0.0682,0.0723,0.0641,0.0636,0.0503,0.034,0.0321,0.0211,0.0166,0.0018,0.0012,0.0009,0.0002,0.0086,0.0086,0.0086,0.0086,0.0086,0,0.0415,0.0465,0.0511,0.0548,0.0638,0.0648,0.0743,0.0761,0.0813,0.0906,0.0818,0.0874,0.0668,0.0575,0.0396,0.021,0.0253,0.0037,-0.0001,0.0031,0.0027,0.0049,0.0046,0.0084,0.0084,0.0085,0.0085,0,0.0465,0.0491,0.057,0.0638,0.0667,0.0735,0.0838,0.0921,0.0958,0.108,0.1099,0.1057,0.0952,0.0718,0.0509,0.0308,0.0119,0.0034,0.0076,0.0043,-0.0085,-0.0084,-0.0123,-0.0126,-0.0128,-0.0129,-0.0131,0,0.0494,0.054,0.0638,0.0707,0.0743,0.0842,0.0931,0.0987,0.109,0.1213,0.1294,0.1229,0.1196,0.0841,0.0494,0.0161,0.0121,-0.0053,-0.0098,-0.007,-0.0103,-0.01,-0.0096,-0.0077,-0.0078,-0.0078,-0.0079,0,0.0548,0.0583,0.0657,0.0802,0.0905,0.1028,0.1159,0.1258,0.137,0.1477,0.1617,0.1597,0.1271,0.0937,0.0445,0.0218,-0.0004,-0.008,-0.0037,-0.0037,-0.0034,-0.0064,-0.0061,-0.0085,-0.0084,-0.0084,-0.0084,-0.0083,0.0598,0.0656,0.0769,0.0912,0.1041,0.1226,0.1348,0.151,0.1688,0.1861,0.1822,0.1788,0.139,0.0767,0.0373,-0.0043,-0.0027,-0.0192,-0.0186,-0.018,-0.0173,-0.0175,-0.0251,-0.0251,-0.0252,-0.0252,-0.0252,0,0.0663,0.0741,0.0877,0.1062,0.1236,0.1288,0.1516,0.1653,0.1886,0.1988,0.2056,0.1665,0.1269,0.0832,0.0214,-0.0176,-0.0191,-0.0295,-0.0221,-0.0213,-0.0206,-0.0198,-0.0284,-0.0285,-0.0286,-0.0287,0,0,0.0702,0.0834,0.0907,0.1197,0.1345,0.1574,0.1712,0.1912,0.202,0.2106,0.206,0.1929,0.1386,0.0933,0.0424,0.0081,0.0022,0.0005,0.0069,0.0224,0.0236,-0.0114,-0.0089,0,0,0,0,0]}],[{"header":{"parameterUnit":"m.s-1","parameterCategory":2,"la1":30.2991,"la2":30.254,"lo1":-89.0895,"lo2":-89.0444,"dy":0.0017,"dx":0.0017,"nx":28,"ny":28,"refTime":"2024-04-25T21:00:00:Z","depth":"4","parameterNumber":2,"parameterNumberName":"U-component_of_CURRENTS"},"data":[0,0,0,0,0,0,0,0,0,0,0,0,0,0,0,0,0,0,0,0,0,0,0,0,0,0,0,0,0,0,0,0,0,0,0,0,0,0,0,0,0,0,0,0,0,0,0,0,0,0,0,0,0,0,0,0,0,0,0.1941,0.1942,0,0.1991,0.1991,0.1991,0.204,0.2042,0.2043,0.2044,0.2089,0.2089,0.2089,0,0,0,0,0,0,0,0,0,0,0,0,0,0.1842,0.1843,0.1941,0.1942,0.1943,0.1991,0.1991,0.1991,0.204,0.2042,0.2043,0.2044,0.2089,0.2089,0.2089,0,0,0,0,0,0,0,0,0,0,0,0,0,0.1882,0.1844,0.1941,0.1978,0.1982,0.1991,0.1991,0.1991,0.204,0.2042,0.2043,0.2045,0.2089,0.2089,0.2089,0.2054,0,0,0.2089,0.2089,0,0,0,0,0,0,0,0,0.188,0.1885,0.1971,0.1975,0.198,0.2016,0.1973,0.2014,0.2039,0.2012,0.2044,0.2046,0.2066,0.2068,0.2066,0.2057,0.2059,0.2089,0.2089,0.2089,0.2089,0,0,0,0,0,0,0,0.1877,0.1883,0.1955,0.1972,0.1978,0.1976,0.1984,0.198,0.2024,0.2014,0.2019,0.2033,0.2068,0.2065,0.2067,0.2059,0.2089,0.2089,0.209,0.209,0.2177,0.2179,0,0,0,0,0,0,0.1883,0.1881,0.1953,0.1957,0.194,0.1977,0.1985,0.1998,0.2024,0.2032,0.2032,0.2036,0.2064,0.2067,0.2069,0.2156,0.2089,0.209,0.209,0.2175,0.2177,0.218,0,0,0,0,0,0,0.1881,0.1889,0.1952,0.1924,0.1933,0.1978,0.1991,0.1998,0.204,0.2039,0.2045,0.2073,0.2066,0.2069,0.2109,0.2154,0.209,0.209,0.2172,0.2176,0.2179,0.225,0,0,0,0,0,0,0.1877,0.1888,0.1912,0.1925,0.1935,0.1981,0.1991,0.1998,0.2046,0.2053,0.2075,0.2079,0.2067,0.2109,0.2109,0.2153,0.209,0.2169,0.2174,0.2178,0.2245,0.2255,0.2264,0,0,0,0,0,0.1874,0.1894,0.1913,0.1923,0.1963,0.1982,0.1987,0.202,0.2047,0.2064,0.2092,0.208,0.2136,0.211,0.211,0.2155,0.2167,0.2172,0.2177,0.224,0.2253,0.2264,0,0,0,0,0,0,0.1864,0.1902,0.1923,0.1956,0.1982,0.1993,0.2022,0.2042,0.2075,0.2099,0.2096,0.2101,0.2158,0.2146,0.2117,0.2196,0.2155,0.216,0.2203,0.2215,0.2224,0.2247,0.209,0,0,0,0,0,0.1874,0.1904,0.1932,0.1963,0.1981,0.2009,0.203,0.2054,0.2079,0.2098,0.2115,0.2142,0.2169,0.2185,0.22,0.2229,0.2244,0.2264,0.2274,0.2282,0.2303,0.2355,0.2372,0.2196,0.2196,0.2196,0,0,0.188,0.1907,0.1925,0.1964,0.199,0.2014,0.2026,0.2071,0.2107,0.2096,0.2158,0.2177,0.2186,0.2231,0.2256,0.2231,0.2343,0.2288,0.2295,0.2312,0.2362,0.2379,0.2394,0.22,0.2199,0.2199,0,0,0.1892,0.1933,0.1959,0.1982,0.2034,0.2047,0.2071,0.2108,0.2149,0.2197,0.2213,0.2264,0.2288,0.2312,0.2324,0.2396,0.2396,0.2407,0.247,0.252,0.2535,0.2548,0.2599,0.2616,0.2408,0.2408,0.2408,0,0.1904,0.1931,0.1968,0.1996,0.2023,0.2068,0.2095,0.2135,0.2185,0.2226,0.2233,0.2321,0.2329,0.2395,0.2431,0.2419,0.2449,0.2419,0.2533,0.2546,0.2558,0.2607,0.2625,0.2412,0.2412,0.2411,0.2411,0,0.1918,0.1955,0.1974,0.2023,0.2058,0.2089,0.2146,0.2202,0.2257,0.2294,0.2391,0.2414,0.2472,0.2484,0.2482,0.2579,0.2574,0.254,0.25,0.258,0.2626,0.2644,0.2418,0.2416,0.2415,0.2414,0,0,0.1901,0.1969,0.198,0.2005,0.2075,0.2098,0.2183,0.2255,0.2326,0.2393,0.2476,0.2545,0.2585,0.2605,0.2618,0.2664,0.2779,0.2652,0.2653,0.2698,0.2907,0.2707,0.2706,0.2767,0.277,0.2773,0.2908,0,0.1901,0.1941,0.1987,0.2036,0.2056,0.2135,0.2203,0.2289,0.2372,0.2462,0.2535,0.262,0.2623,0.2674,0.2725,0.2769,0.2828,0.2746,0.2827,0.283,0.2638,0.272,0.2783,0.2921,0.2925,0.2928,0.293,0,0.1889,0.1919,0.1961,0.204,0.2063,0.2109,0.2235,0.2312,0.2456,0.253,0.2641,0.2701,0.282,0.2792,0.2933,0.2887,0.2921,0.2939,0.2944,0.2744,0.2661,0.2823,0.2961,0.2958,0.2956,0.2954,0.2952,0,0.1831,0.19,0.1931,0.1955,0.2053,0.2113,0.219,0.2335,0.2422,0.2598,0.2673,0.2809,0.29,0.2969,0.3037,0.3008,0.3159,0.311,0.2964,0.2951,0.3059,0.3043,0.3207,0.3207,0.3207,0.3206,0.3206,0,0.1787,0.1819,0.1908,0.1925,0.1975,0.2088,0.2184,0.2294,0.2463,0.2562,0.2716,0.2798,0.2954,0.305,0.3083,0.308,0.3207,0.2999,0.2974,0.3086,0.3072,0.3071,0.3054,0.3211,0.321,0.3209,0.3209,0,0.1707,0.1771,0.1803,0.1909,0.1944,0.1991,0.2153,0.2219,0.2423,0.2561,0.2631,0.2839,0.2974,0.3085,0.3209,0.3124,0.3143,0.3107,0.3249,0.3226,0.2895,0.2881,0.2963,0.2957,0.2952,0.2948,0.2945,0,0.1659,0.1666,0.176,0.1764,0.181,0.19,0.1949,0.2165,0.2246,0.255,0.2586,0.2811,0.2922,0.2945,0.3067,0.3126,0.3083,0.307,0.2959,0.2904,0.2873,0.2866,0.2858,0.2937,0.2935,0.2934,0.2933,0,0.1545,0.1595,0.1624,0.1639,0.1676,0.1719,0.1829,0.1881,0.2148,0.2345,0.2499,0.2602,0.2741,0.2835,0.2907,0.2929,0.306,0.3017,0.3026,0.2922,0.2873,0.2845,0.2843,0.2915,0.2918,0.292,0.2921,0,0.1453,0.1443,0.1486,0.1489,0.1516,0.1526,0.1612,0.1723,0.1856,0.2214,0.2252,0.25,0.2713,0.2735,0.279,0.281,0.2766,0.2656,0.2684,0.2704,0.2552,0.2447,0.2357,0,0,0,0,0,0.1328,0.132,0.132,0.1314,0.1332,0.1377,0.1512,0.1624,0.1886,0.1933,0.2109,0.2238,0.2378,0.2487,0.246,0.2656,0.2754,0.2607,0.2634,0.2819,0.2839,0.2682,0,0,0,0,0,0,0.1248,0.1254,0.1277,0.1167,0.1139,0.1168,0.1263,0.1445,0.1495,0.1776,0.1858,0.2077,0.2231,0.2376,0.241,0.2445,0.2409,0.2764,0.2757,0.2808,0.2826,0.2842,0.2687,0,0,0,0,0]},{"header":{"parameterUnit":"m.s-1","parameterCategory":2,"la1":30.2991,"la2":30.254,"lo1":-89.0895,"lo2":-89.0444,"dy":0.0017,"dx":0.0017,"nx":28,"ny":28,"refTime":"2024-04-25T21:00:00:Z","depth":"4","parameterNumber":3,"parameterNumberName":"V-component_of_CURRENTS"},"data":[0,0,0,0,0,0,0,0,0,0,0,0,0,0,0,0,0,0,0,0,0,0,0,0,0,0,0,0,0,0,0,0,0,0,0,0,0,0,0,0,0,0,0,0,0,0,0,0,0,0,0,0,0,0,0,0,0,0,0.0049,0.0048,0,0.0023,0.0023,0.0022,0.0003,0.0003,0.0003,0.0003,-0.0036,-0.0037,-0.0038,0,0,0,0,0,0,0,0,0,0,0,0,0,0.0061,0.0061,0.0049,0.0048,0.0048,0.0023,0.0023,0.0022,0.0003,0.0003,0.0003,0.0002,-0.0036,-0.0037,-0.0038,0,0,0,0,0,0,0,0,0,0,0,0,0,0.0047,0.0061,0.0049,0.0036,0.0034,0.0023,0.0023,0.0022,0.0003,0.0003,0.0003,0.0002,-0.0035,-0.0037,-0.0038,-0.0042,0,0,-0.0042,-0.0043,0,0,0,0,0,0,0,0,0.0048,0.0047,0.0038,0.0037,0.0035,0.0016,0.0013,0.0,0.0003,0.0015,0.0003,0.0002,-0.0019,-0.0022,-0.0027,-0.0044,-0.0045,-0.0042,-0.0043,-0.0044,-0.0044,0,0,0,0,0,0,0,0.0049,0.0048,0.0038,0.0038,0.0036,0.0024,0.0022,0.001,-0.0001,0.0014,0.0012,0.001,-0.002,-0.0025,-0.0028,-0.0046,-0.0042,-0.0043,-0.0044,-0.0045,-0.0064,-0.0064,0,0,0,0,0,0,0.0054,0.0049,0.0039,0.0037,0.0041,0.0024,0.0022,0.0022,-0.0001,-0.0005,0.001,0.0009,-0.0023,-0.0026,-0.0029,-0.0025,-0.0044,-0.0045,-0.0046,-0.0065,-0.0064,-0.0064,0,0,0,0,0,0,0.0055,0.0054,0.004,0.0042,0.004,0.0025,0.0025,0.0022,0.002,-0.0003,-0.0007,0.0011,-0.0023,-0.0027,-0.0031,-0.0027,-0.0045,-0.0047,-0.0065,-0.0065,-0.0064,-0.0023,0,0,0,0,0,0,0.0055,0.0054,0.0057,0.0043,0.004,0.0043,0.0025,0.0021,0.0018,0.0017,-0.0004,-0.0008,-0.0024,-0.0029,-0.0032,-0.0029,-0.0048,-0.0065,-0.0065,-0.0064,-0.0025,-0.0022,-0.0019,0,0,0,0,0,0.0056,0.0064,0.0058,0.0056,0.0045,0.0044,0.0041,0.0029,0.0019,0.0025,0.001,-0.0007,-0.0029,-0.0029,-0.0034,-0.0031,-0.0066,-0.0065,-0.0064,-0.0026,-0.0022,-0.0019,0,0,0,0,0,0,0.0072,0.0062,0.0055,0.006,0.0056,0.0041,0.0043,0.0033,0.0026,0.0022,-0.0,-0.0005,-0.0008,-0.0024,-0.0024,-0.0036,-0.0051,-0.0052,-0.0021,-0.0017,-0.0014,0.0001,-0.0049,0,0,0,0,0,0.0077,0.0081,0.0069,0.0075,0.0072,0.0058,0.0055,0.0048,0.0038,0.0034,0.002,0.0003,-0.0009,-0.0016,-0.0028,-0.0032,-0.0062,-0.0034,-0.0031,-0.0028,-0.0018,-0.0065,-0.0065,-0.0062,-0.0062,-0.0062,0,0,0.0083,0.008,0.0081,0.0078,0.0071,0.0078,0.0056,0.0056,0.0065,0.0031,0.0038,0.0015,-0.0007,-0.0011,-0.0014,-0.0023,-0.0046,-0.0027,-0.0024,-0.0016,-0.0064,-0.0065,-0.0065,-0.0062,-0.0062,-0.0062,0,0,0.0105,0.0097,0.0108,0.0108,0.0103,0.0095,0.0097,0.0086,0.0084,0.0086,0.0062,0.0045,0.003,0.0013,0.0002,0.0016,-0.0027,0.0008,0.0036,-0.0009,-0.001,-0.001,-0.0055,-0.006,0.0009,0.0009,0.0009,0,0.0113,0.0127,0.0112,0.0125,0.0132,0.0106,0.0124,0.0118,0.0108,0.0111,0.0095,0.0064,0.0042,0.0034,0.0037,0.0023,-0.001,0.0024,-0.0005,-0.0006,-0.0008,-0.0054,-0.006,0.0011,0.0011,0.001,0.001,0,0.0142,0.0155,0.0163,0.0171,0.0176,0.0187,0.0179,0.0182,0.0171,0.016,0.0151,0.0114,0.0098,0.0081,0.0064,0.0044,0.0022,0.0004,-0.0014,-0.0006,-0.0055,-0.0062,0.0014,0.0013,0.0012,0.0012,0,0,0.0159,0.018,0.0184,0.0206,0.0204,0.0218,0.0229,0.0237,0.0252,0.0221,0.023,0.0192,0.0164,0.015,0.0116,0.0074,0.0027,0.0039,0.0035,-0.0004,-0.0076,-0.0079,-0.0088,0.0,-0.0,-0.0001,-0.0108,0,0.0189,0.0232,0.023,0.0276,0.0299,0.0289,0.0309,0.031,0.03,0.0299,0.0247,0.0241,0.0192,0.0185,0.0134,0.0059,0.0011,0.0057,-0.0079,-0.0083,-0.0085,-0.0095,-0.0004,-0.0113,-0.0115,-0.0116,-0.0117,0,0.0219,0.0248,0.0299,0.0346,0.0355,0.0376,0.0409,0.0428,0.0411,0.0401,0.0367,0.0323,0.0265,0.0222,0.0086,0.0116,0.0029,-0.004,-0.0046,-0.0065,-0.0098,-0.0123,-0.0131,-0.013,-0.0129,-0.0128,-0.0127,0,0.0252,0.0299,0.0348,0.0361,0.0401,0.0429,0.0454,0.0459,0.0497,0.0469,0.0477,0.0385,0.0356,0.0228,0.0085,0.0083,-0.0075,-0.0097,-0.0185,-0.0187,-0.0171,-0.0169,-0.0195,-0.0195,-0.0195,-0.0194,-0.0194,0,0.0285,0.0325,0.0372,0.0399,0.0475,0.0483,0.0557,0.0563,0.0584,0.0631,0.0539,0.0537,0.0356,0.0245,0.01,-0.0064,-0.0068,-0.018,-0.0213,-0.0152,-0.0147,-0.0177,-0.0174,-0.0198,-0.0197,-0.0197,-0.0196,0,0.031,0.0335,0.0404,0.0464,0.0494,0.0553,0.0649,0.07,0.0702,0.0758,0.0756,0.0651,0.0498,0.0306,0.0093,-0.0025,-0.0193,-0.0251,-0.017,-0.0198,-0.0281,-0.0274,-0.0359,-0.036,-0.0361,-0.0362,-0.0362,0,0.0324,0.0358,0.046,0.0521,0.0555,0.0648,0.0718,0.076,0.0821,0.0831,0.0858,0.0727,0.0632,0.0328,0.011,-0.0179,-0.0216,-0.0305,-0.0296,-0.0273,-0.0297,-0.0289,-0.0281,-0.0363,-0.0364,-0.0364,-0.0364,0,0.0351,0.0388,0.0454,0.0583,0.0672,0.0787,0.0886,0.0938,0.0989,0.0985,0.095,0.0787,0.0608,0.0345,0.0116,-0.0089,-0.0251,-0.0315,-0.0314,-0.0306,-0.0279,-0.0301,-0.0292,-0.0367,-0.0366,-0.0366,-0.0366,0,0.0387,0.0434,0.0528,0.0647,0.0762,0.0887,0.0943,0.1011,0.1066,0.1064,0.1044,0.0839,0.0713,0.0392,0.0183,-0.0026,-0.0079,-0.014,-0.015,-0.015,-0.0062,0.0005,-0.0023,0,0,0,0,0,0.0422,0.048,0.0584,0.0719,0.0835,0.0915,0.1037,0.1083,0.1119,0.1111,0.1087,0.0918,0.0601,0.0452,0.0244,0.0155,-0.0125,-0.0097,-0.0201,-0.0382,-0.0379,-0.0313,0,0,0,0,0,0,0.0445,0.0542,0.0585,0.0752,0.0853,0.0998,0.1083,0.1122,0.1119,0.111,0.094,0.086,0.0543,0.0714,0.0234,0.0169,0.0075,-0.025,-0.0254,-0.0384,-0.0381,-0.0379,-0.0309,0,0,0,0,0]}]]